User: anonymous   Login
Location: Austin, TX
(30.3000°N, 97.7500°W)
Time: 11:25:01
(UTC-05:00)
Language:

Cosmos 2082 Rocket - Orbit

View from above orbital plane
View from above orbital plane
View from above satellite
View from above satellite

Ground track
Ground track

The orbit data is extracted from the following two-line orbital elements,

1 20625U 90046B   16151.53233852 -.00000268  00000-0 -11447-3 0  9997
2 20625  71.0002 232.2384 0015878 321.0253 130.1406 14.14601147343729
Epoch (UTC): 30 May 2016 12:46:34
Eccentricity: 0.0015878
inclination: 71.0002°
perigee height: 832 km
apogee height: 855 km
right ascension of ascending node: 232.2384°
argument of perigee: 321.0253°
revolutions per day: 14.14601147
mean anomaly at epoch: 130.1406°
orbit number at epoch: 34372

The dashed part of the orbit path shows where the satellite is in the earth's shadow,  

DLR